| time (UTC) | temp F | wind direction | speed MPH | gust MPH | rain 1hr in | rain 24hr in | rain mn in | humidity % | barometer mb |
| 20260504050001 | 51 | 134 | 2.0 | 3.0 | 0.00 | 0.00 | 0.00 | 59 | 1000.7 |
| 20260504045012 | 51 | 139 | 1.0 | 2.0 | 0.00 | 0.00 | 0.00 | 58 | 1000.6 |
| 20260504044025 | 52 | 179 | 0.0 | 0.0 | 0.00 | 0.00 | 0.00 | 58 | 1000.6 |
| 20260504043030 | 52 | 208 | 2.0 | 3.0 | 0.00 | 0.00 | 0.00 | 57 | 1000.9 |
| 20260504042028 | 52 | 177 | 1.0 | 2.0 | 0.00 | 0.00 | 0.00 | 57 | 1000.6 |
| 20260504041033 | 52 | 194 | 2.0 | 3.0 | 0.00 | 0.00 | 0.00 | 56 | 1000.8 |
| 20260504040033 | 52 | 152 | 2.0 | 3.0 | 0.00 | 0.00 | 0.00 | 56 | 1000.7 |
| 20260504035029 | 53 | 179 | 2.0 | 3.0 | 0.00 | 0.00 | 0.00 | 56 | 1000.6 |
| 20260504034009 | 52 | 300 | 3.0 | 4.0 | 0.00 | 0.00 | 0.00 | 57 | 1000.6 |
| 20260504032022 | 53 | 80 | 1.0 | 2.0 | 0.00 | 0.00 | 0.00 | 57 | 1000.7 |
| 20260504031033 | 53 | 171 | 1.0 | 2.0 | 0.00 | 0.00 | 0.00 | 57 | 1000.5 |
| 20260504025022 | 54 | 196 | 4.0 | 7.0 | 0.00 | 0.00 | 0.00 | 55 | 1000.3 |
| 20260504024007 | 53 | 227 | 2.0 | 3.0 | 0.00 | 0.00 | 0.00 | 56 | 1000.8 |
| 20260504023008 | 53 | 112 | 2.0 | 3.0 | 0.00 | 0.00 | 0.00 | 56 | 1001.0 |
| 20260504022032 | 53 | 157 | 0.0 | 0.0 | 0.00 | 0.00 | 0.00 | 58 | 1001.0 |
| 20260504021021 | 52 | 202 | 1.0 | 2.0 | 0.00 | 0.00 | 0.00 | 59 | 1001.0 |
| 20260504020027 | 52 | 153 | 0.0 | 0.0 | 0.00 | 0.00 | 0.00 | 58 | 1001.0 |
| 20260504015013 | 52 | 176 | 0.0 | 0.0 | 0.00 | 0.00 | 0.00 | 60 | 1000.8 |
| 20260504014014 | 52 | 188 | 1.0 | 2.0 | 0.00 | 0.00 | 0.00 | 61 | 1000.7 |
| 20260504012024 | 52 | 206 | 1.0 | 2.0 | 0.00 | 0.00 | 0.00 | 59 | 1001.2 |
| 20260504011008 | 52 | 118 | 1.0 | 2.0 | 0.00 | 0.00 | 0.00 | 60 | 1001.4 |
| 20260504010005 | 52 | 112 | 2.0 | 3.0 | 0.00 | 0.00 | 0.00 | 61 | 1001.2 |
| 20260504005015 | 52 | 200 | 1.0 | 2.0 | 0.00 | 0.00 | 0.00 | 60 | 1001.1 |
| 20260504004011 | 52 | 247 | 4.0 | 5.0 | 0.00 | 0.00 | 0.00 | 61 | 1001.4 |
| 20260504003004 | 52 | 19 | 1.0 | 3.0 | 0.00 | 0.00 | 0.00 | 60 | 1001.5 |
| 20260504001002 | 53 | 228 | 2.0 | 2.0 | 0.00 | 0.00 | 0.00 | 58 | 1001.2 |
| 20260504000041 | 53 | 225 | 2.0 | 3.0 | 0.00 | 0.00 | 0.00 | 57 | 1001.1 |
| 20260503235026 | 53 | 157 | 1.0 | 2.0 | 0.00 | 0.00 | 0.00 | 57 | 1001.2 |
| 20260503233013 | 54 | 276 | 4.0 | 5.0 | 0.00 | 0.00 | 0.00 | 54 | 1001.2 |
| 20260503232003 | 54 | 236 | 3.0 | 4.0 | 0.00 | 0.00 | 0.00 | 53 | 1001.2 |
| 20260503231034 | 54 | 283 | 4.0 | 5.0 | 0.00 | 0.00 | 0.00 | 52 | 1000.8 |
| 20260503230020 | 55 | 137 | 2.0 | 3.0 | 0.00 | 0.00 | 0.00 | 51 | 1000.8 |
| 20260503225008 | 55 | 257 | 2.0 | 3.0 | 0.00 | 0.00 | 0.00 | 51 | 1000.8 |
| 20260503224039 | 55 | 219 | 4.0 | 5.0 | 0.00 | 0.00 | 0.00 | 46 | 1000.6 |
| 20260503223029 | 55 | 229 | 3.0 | 4.0 | 0.00 | 0.00 | 0.00 | 46 | 1000.6 |
| 20260503222024 | 55 | 201 | 1.0 | 2.0 | 0.00 | 0.00 | 0.00 | 51 | 1000.7 |
| 20260503220023 | 55 | 158 | 1.0 | 2.0 | 0.00 | 0.00 | 0.00 | 49 | 1000.9 |
| 20260503214021 | 56 | 281 | 3.0 | 4.0 | 0.00 | 0.00 | 0.00 | 47 | 1000.8 |
| 20260503213012 | 56 | 201 | 1.0 | 3.0 | 0.00 | 0.00 | 0.00 | 47 | 1000.8 |
| 20260503212040 | 57 | 209 | 2.0 | 3.0 | 0.00 | 0.00 | 0.00 | 47 | 1000.7 |
| 20260503211017 | 57 | 188 | 1.0 | 2.0 | 0.00 | 0.00 | 0.00 | 46 | 1000.6 |
| 20260503210042 | 57 | 326 | 2.0 | 3.0 | 0.00 | 0.00 | 0.00 | 44 | 1000.5 |
| 20260503205024 | 59 | 162 | 0.0 | 0.0 | 0.00 | 0.00 | 0.00 | 43 | 1000.5 |
| 20260503204021 | 58 | 281 | 1.0 | 3.0 | 0.00 | 0.00 | 0.00 | 46 | 1000.7 |
| 20260503203017 | 58 | 246 | 3.0 | 4.0 | 0.00 | 0.00 | 0.00 | 41 | 1000.8 |
| 20260503202019 | 59 | 241 | 3.0 | 4.0 | 0.00 | 0.00 | 0.00 | 42 | 1000.8 |
| 20260503201008 | 57 | 265 | 2.0 | 3.0 | 0.00 | 0.00 | 0.00 | 44 | 1001.0 |
| 20260503200042 | 56 | 197 | 1.0 | 2.0 | 0.00 | 0.00 | 0.00 | 45 | 1001.5 |
| 20260503195045 | 55 | 198 | 1.0 | 2.0 | 0.00 | 0.00 | 0.00 | 44 | 1001.6 |
| 20260503194035 | 56 | 98 | 3.0 | 4.0 | 0.00 | 0.00 | 0.00 | 45 | 1001.6 |
| 20260503192012 | 54 | 196 | 1.0 | 2.0 | 0.00 | 0.00 | 0.00 | 46 | 1002.1 |
| 20260503191007 | 56 | 286 | 2.0 | 4.0 | 0.00 | 0.00 | 0.00 | 44 | 1002.2 |
| 20260503190045 | 55 | 311 | 2.0 | 4.0 | 0.00 | 0.00 | 0.00 | 44 | 1002.7 |
| 20260503184028 | 56 | 243 | 1.0 | 4.0 | 0.00 | 0.00 | 0.00 | 50 | 1002.9 |
| 20260503183036 | 57 | 244 | 2.0 | 3.0 | 0.00 | 0.00 | 0.00 | 47 | 1002.7 |
| 20260503181019 | 53 | 209 | 3.0 | 5.0 | 0.00 | 0.00 | 0.00 | 48 | 1002.9 |
| 20260503175013 | 55 | 302 | 2.0 | 3.0 | 0.00 | 0.00 | 0.00 | 51 | 1003.1 |
| 20260503174015 | 53 | 243 | 3.0 | 4.0 | 0.00 | 0.00 | 0.00 | 51 | 1003.0 |
| 20260503173023 | 56 | 204 | 2.0 | 2.0 | 0.00 | 0.00 | 0.00 | 54 | 1003.1 |
| 20260503172033 | 56 | 247 | 2.0 | 2.0 | 0.00 | 0.00 | 0.00 | 53 | 1003.1 |
| 20260503171042 | 55 | 94 | 1.0 | 3.0 | 0.00 | 0.00 | 0.00 | 51 | 1003.3 |
| 20260503151006 | 52 | 99 | 1.0 | 2.0 | 0.00 | 0.00 | 0.00 | 55 | 1004.5 |
| 20260503131031 | 46 | 213 | 2.0 | 3.0 | 0.00 | 0.00 | 0.00 | 58 | 1005.7 |
| 20260503081017 | 35 | 168 | 0.0 | 0.0 | 0.00 | 0.00 | 0.00 | 85 | 1005.3 |
| 20260503072029 | 35 | 169 | 0.0 | 0.0 | 0.00 | 0.00 | 0.00 | 85 | 1005.3 |
| 20260503071040 | 35 | 161 | 0.0 | 0.0 | 0.00 | 0.00 | 0.00 | 85 | 1005.3 |
| 20260503054005 | 38 | 171 | 1.0 | 2.0 | 0.00 | 0.00 | 0.00 | 80 | 1005.4 |
| 20260503053031 | 38 | 185 | 1.0 | 2.0 | 0.00 | 0.00 | 0.00 | 79 | 1005.6 |